• In Schweiz
  • Länderverzeichnis
  • Für 7 Tage
  • Wassertemperatur
  • Satellitenkarten
  • Wetterkarte
  • Widgets
  • user-avatar
    Anmelden

    Stündliche Wetter Seredyntsi

    Heute, 26 April, Donnerstag

    Zeit Temperatur Niederschläge Wind Luftdruck Luftfeuchtigkeit
    00:00 +15°C° 0,2 mm 5 m/S 730 mmHg 79%
    01:00 +15°C° 0,2 mm 5 m/S 731 mmHg 81%
    02:00 +14°C° 0 mm 3 m/S 730 mmHg 86%
    03:00 +13°C° 0 mm 3 m/S 731 mmHg 88%
    04:00 +13°C° 0 mm 3 m/S 731 mmHg 90%
    05:00 +12°C° 0 mm 3 m/S 731 mmHg 91%
    06:00 +13°C° 0 mm 4 m/S 732 mmHg 84%
    07:00 +14°C° 0 mm 5 m/S 732 mmHg 77%
    08:00 +15°C° 0 mm 6 m/S 733 mmHg 68%
    09:00 +16°C° 0 mm 6 m/S 733 mmHg 63%
    10:00 +16°C° 0 mm 6 m/S 733 mmHg 58%
    11:00 +17°C° 0 mm 6 m/S 734 mmHg 53%
    12:00 +17°C° 0 mm 5 m/S 734 mmHg 52%
    13:00 +19°C° 0 mm 5 m/S 734 mmHg 50%
    14:00 +19°C° 0 mm 5 m/S 734 mmHg 48%
    15:00 +18°C° 0 mm 4 m/S 734 mmHg 52%
    16:00 +17°C° 0 mm 4 m/S 734 mmHg 56%
    17:00 +16°C° 0 mm 3 m/S 734 mmHg 60%
    18:00 +14°C° 0,2 mm 3 m/S 734 mmHg 65%
    19:00 +13°C° 0,2 mm 3 m/S 734 mmHg 70%
    20:00 +13°C° 0,2 mm 2 m/S 734 mmHg 75%
    21:00 +12°C° 0,6 mm 2 m/S 734 mmHg 79%
    22:00 +12°C° 0,6 mm 2 m/S 734 mmHg 83%
    23:00 +10°C° 0,6 mm 2 m/S 734 mmHg 87%

    Morgen, 27 April, Freitag

    Zeit Temperatur Niederschläge Wind Luftdruck Luftfeuchtigkeit
    00:00 +10°C° 0,3 mm 2 m/S 734 mmHg 88%
    01:00 +10°C° 0,3 mm 2 m/S 734 mmHg 89%
    02:00 +10°C° 0,3 mm 2 m/S 735 mmHg 90%
    03:00 +10°C° 0,1 mm 2 m/S 735 mmHg 91%
    04:00 +10°C° 0,1 mm 3 m/S 735 mmHg 91%
    05:00 +10°C° 0,1 mm 3 m/S 735 mmHg 91%
    06:00 +10°C° 0 mm 4 m/S 736 mmHg 87%
    07:00 +10°C° 0 mm 4 m/S 736 mmHg 83%
    08:00 +10°C° 0 mm 5 m/S 736 mmHg 80%
    09:00 +12°C° 0 mm 5 m/S 737 mmHg 72%
    10:00 +13°C° 0 mm 5 m/S 737 mmHg 65%
    11:00 +14°C° 0 mm 5 m/S 737 mmHg 57%
    12:00 +15°C° 0 mm 5 m/S 737 mmHg 54%
    13:00 +15°C° 0 mm 5 m/S 737 mmHg 51%
    14:00 +16°C° 0 mm 5 m/S 737 mmHg 48%
    15:00 +15°C° 0 mm 5 m/S 737 mmHg 49%
    16:00 +15°C° 0 mm 5 m/S 737 mmHg 50%
    17:00 +15°C° 0 mm 5 m/S 737 mmHg 51%
    18:00 +13°C° 0 mm 4 m/S 738 mmHg 57%
    19:00 +12°C° 0 mm 3 m/S 738 mmHg 62%
    20:00 +10°C° 0 mm 2 m/S 738 mmHg 68%
    21:00 +10°C° 0 mm 2 m/S 738 mmHg 70%
    22:00 +10°C° 0 mm 1 m/S 739 mmHg 71%
    23:00 +9°C° 0 mm 1 m/S 739 mmHg 73%

    übermorgen, 28 April, Samstag

    Zeit Temperatur Niederschläge Wind Luftdruck Luftfeuchtigkeit
    00:00 +9°C° 0 mm 1 m/S 739 mmHg 74%
    01:00 +9°C° 0 mm 1 m/S 739 mmHg 75%
    02:00 +8°C° 0 mm 1 m/S 739 mmHg 76%
    03:00 +8°C° 0 mm 1 m/S 739 mmHg 77%
    04:00 +8°C° 0 mm 1 m/S 740 mmHg 77%
    05:00 +8°C° 0 mm 1 m/S 740 mmHg 78%
    06:00 +8°C° 0 mm 2 m/S 740 mmHg 73%
    07:00 +10°C° 0 mm 2 m/S 740 mmHg 68%
    08:00 +12°C° 0 mm 3 m/S 740 mmHg 64%
    09:00 +14°C° 0 mm 3 m/S 740 mmHg 59%
    10:00 +15°C° 0 mm 4 m/S 740 mmHg 54%
    11:00 +18°C° 0 mm 4 m/S 740 mmHg 49%
    12:00 +19°C° 0 mm 4 m/S 740 mmHg 48%
    13:00 +20°C° 0 mm 5 m/S 739 mmHg 48%
    14:00 +21°C° 0 mm 5 m/S 739 mmHg 47%
    15:00 +21°C° 0 mm 5 m/S 739 mmHg 49%
    16:00 +21°C° 0 mm 5 m/S 738 mmHg 52%
    17:00 +21°C° 0 mm 4 m/S 738 mmHg 54%
    18:00 +19°C° 0 mm 4 m/S 738 mmHg 61%
    19:00 +17°C° 0 mm 4 m/S 738 mmHg 69%
    20:00 +16°C° 0 mm 3 m/S 738 mmHg 76%
    21:00 +14°C° 0 mm 3 m/S 738 mmHg 79%
    22:00 +14°C° 0 mm 3 m/S 738 mmHg 81%
    23:00 +13°C° 0 mm 3 m/S 738 mmHg 83%

    29 April, Sonntag

    Zeit Temperatur Niederschläge Wind Luftdruck Luftfeuchtigkeit
    00:00 +13°C° 0 mm 4 m/S 738 mmHg 83%
    01:00 +13°C° 0 mm 4 m/S 738 mmHg 82%
    02:00 +13°C° 0 mm 4 m/S 738 mmHg 82%
    03:00 +13°C° 0 mm 4 m/S 738 mmHg 82%
    04:00 +13°C° 0 mm 4 m/S 738 mmHg 81%
    05:00 +12°C° 0 mm 4 m/S 738 mmHg 81%
    06:00 +13°C° 0 mm 5 m/S 738 mmHg 77%
    07:00 +15°C° 0 mm 5 m/S 738 mmHg 74%
    08:00 +16°C° 0 mm 5 m/S 738 mmHg 71%
    09:00 +19°C° 0 mm 6 m/S 739 mmHg 66%
    10:00 +21°C° 0 mm 6 m/S 739 mmHg 60%
    11:00 +22°C° 0 mm 6 m/S 739 mmHg 55%
    12:00 +23°C° 0 mm 6 m/S 738 mmHg 52%
    13:00 +24°C° 0 mm 6 m/S 738 mmHg 48%
    14:00 +26°C° 0 mm 7 m/S 738 mmHg 45%
    15:00 +24°C° 0 mm 6 m/S 738 mmHg 46%
    16:00 +24°C° 0 mm 6 m/S 737 mmHg 48%
    17:00 +23°C° 0 mm 5 m/S 737 mmHg 49%
    18:00 +21°C° 0 mm 5 m/S 737 mmHg 54%
    19:00 +19°C° 0 mm 5 m/S 737 mmHg 59%
    20:00 +17°C° 0 mm 4 m/S 737 mmHg 63%
    21:00 +16°C° 0 mm 5 m/S 737 mmHg 64%
    22:00 +15°C° 0 mm 5 m/S 737 mmHg 64%
    23:00 +15°C° 0 mm 5 m/S 737 mmHg 64%

    30 April, Montag

    Zeit Temperatur Niederschläge Wind Luftdruck Luftfeuchtigkeit
    00:00 +14°C° 0 mm 6 m/S 737 mmHg 63%
    01:00 +14°C° 0 mm 6 m/S 736 mmHg 62%
    02:00 +13°C° 0 mm 6 m/S 736 mmHg 60%
    03:00 +13°C° 0 mm 6 m/S 736 mmHg 60%
    04:00 +11°C° 0 mm 6 m/S 736 mmHg 60%
    05:00 +12°C° 0 mm 5 m/S 736 mmHg 61%
    06:00 +13°C° 0 mm 6 m/S 736 mmHg 58%
    07:00 +14°C° 0 mm 7 m/S 736 mmHg 56%
    08:00 +16°C° 0 mm 7 m/S 736 mmHg 53%
    09:00 +17°C° 0 mm 7 m/S 736 mmHg 50%
    10:00 +20°C° 0 mm 7 m/S 736 mmHg 47%
    11:00 +21°C° 0 mm 7 m/S 736 mmHg 44%
    12:00 +22°C° 0 mm 7 m/S 736 mmHg 42%
    13:00 +23°C° 0 mm 7 m/S 736 mmHg 41%
    14:00 +24°C° 0 mm 7 m/S 735 mmHg 40%
    15:00 +24°C° 0 mm 6 m/S 735 mmHg 43%
    16:00 +23°C° 0 mm 6 m/S 735 mmHg 46%
    17:00 +23°C° 0 mm 5 m/S 735 mmHg 48%
    18:00 +21°C° 0 mm 5 m/S 735 mmHg 54%
    19:00 +19°C° 0 mm 4 m/S 735 mmHg 60%
    20:00 +17°C° 0 mm 4 m/S 735 mmHg 65%
    21:00 +17°C° 0 mm 4 m/S 735 mmHg 66%
    22:00 +15°C° 0 mm 4 m/S 735 mmHg 67%
    23:00 +14°C° 0 mm 4 m/S 735 mmHg 68%

    1 Mai, Dienstag

    Zeit Temperatur Niederschläge Wind Luftdruck Luftfeuchtigkeit
    00:00 +14°C° 0 mm 4 m/S 735 mmHg 68%
    01:00 +13°C° 0 mm 4 m/S 735 mmHg 68%
    02:00 +13°C° 0 mm 3 m/S 735 mmHg 69%
    03:00 +12°C° 0 mm 3 m/S 735 mmHg 69%
    04:00 +12°C° 0 mm 3 m/S 736 mmHg 69%
    05:00 +11°C° 0 mm 3 m/S 736 mmHg 70%
    06:00 +13°C° 0 mm 3 m/S 736 mmHg 67%
    07:00 +14°C° 0 mm 3 m/S 736 mmHg 65%
    08:00 +17°C° 0 mm 3 m/S 737 mmHg 62%
    09:00 +19°C° 0 mm 3 m/S 737 mmHg 58%
    10:00 +21°C° 0 mm 3 m/S 737 mmHg 54%
    11:00 +22°C° 0 mm 3 m/S 737 mmHg 50%
    12:00 +24°C° 0 mm 3 m/S 737 mmHg 47%
    13:00 +25°C° 0 mm 3 m/S 737 mmHg 44%
    14:00 +26°C° 0 mm 3 m/S 737 mmHg 40%
    15:00 +26°C° 0 mm 3 m/S 737 mmHg 41%
    16:00 +26°C° 0 mm 2 m/S 736 mmHg 42%
    17:00 +26°C° 0 mm 2 m/S 736 mmHg 44%
    18:00 +24°C° 0 mm 2 m/S 736 mmHg 49%
    19:00 +20°C° 0 mm 2 m/S 736 mmHg 54%
    20:00 +18°C° 0 mm 2 m/S 736 mmHg 59%
    21:00 +18°C° 0 mm 3 m/S 736 mmHg 61%
    22:00 +17°C° 0 mm 3 m/S 736 mmHg 63%
    23:00 +16°C° 0 mm 3 m/S 736 mmHg 65%
    Mehr zeigen